Temp
-5 -5 -5 -5 -5 -5 -5 -6 -6 -6 -5 -5 -6 -6 -6 -6 -6 -6 -6 -6 -6 -6 -6 -6 -5 -5 -6 -6 -6 -6 -6 -6 -6 -6 -6 -6 -6 -6 -6 -6 -6 -6 -6 -6 -6 -7 -7 -7 -7 -7 -7 -7 -7 -7 -7 -7 -7 -7 -7 -7 -7 -7 -7
-5 -5 -5 -5 -5 -5 -6 -6 -6 -6 -6 -6 -6 -7 -6 -6 -6 -6 -6 -6 -6 -6 -6 -6 -6 -6 -6 -6 -6 -6 -6 -6 -6 -6 -6 -6 -6 -6 -6 -6 -6 -7 -7 -7 -7 -7 -6 -6 -7 -7 -7 -7 -7 -7 -7 -7 -7 -7 -7 -7 -7 -7 -7
-4 -5 -5 -5 -5 -6 -6 -6 -6 -6 -6 -6 -6 -7 -7 -7 -7 -6 -6 -6 -6 -6 -6 -6 -6 -6 -6 -6 -6 -6 -6 -6 -6 -6 -6 -6 -6 -6 -6 -7 -7 -7 -7 -7 -7 -7 -7 -7 -7 -7 -7 -7 -7 -7 -7 -7 -7 -7 -7 -7 -7 -8 -8
-5 -5 -5 -5 -5 -6 -6 -6 -6 -6 -6 -7 -7 -7 -7 -7 -7 -7 -7 -6 -6 -6 -6 -6 -6 -6 -6 -6 -6 -6 -6 -6 -6 -7 -7 -7 -6 -7 -7 -7 -7 -7 -7 -7 -7 -7 -7 -7 -7 -7 -7 -7 -7 -7 -7 -7 -7 -7 -7 -7 -8 -8 -8
-5 -5 -5 -6 -6 -6 -6 -6 -6 -6 -7 -7 -7 -7 -7 -7 -7 -7 -7 -7 -6 -6 -6 -6 -6 -6 -6 -6 -6 -6 -6 -6 -7 -7 -7 -7 -7 -7 -7 -7 -7 -7 -7 -7 -7 -7 -7 -7 -7 -7 -7 -7 -7 -7 -7 -7 -7 -7 -7 -8 -8 -8 -8
-6 -6 -5 -5 -6 -6 -6 -6 -6 -6 -7 -7 -7 -7 -7 -7 -7 -7 -7 -7 -7 -7 -6 -6 -6 -6 -6 -6 -6 -6 -6 -6 -7 -7 -7 -7 -7 -7 -7 -7 -7 -7 -7 -7 -7 -7 -7 -7 -7 -7 -7 -7 -7 -7 -7 -8 -8 -8 -8 -8 -8 -8 -8
-7 -6 -5 -5 -6 -6 -6 -6 -6 -6 -6 -6 -7 -7 -7 -7 -7 -7 -7 -7 -7 -7 -6 -6 -6 -6 -6 -6 -6 -6 -6 -6 -6 -6 -6 -6 -6 -7 -7 -7 -7 -7 -7 -7 -7 -7 -7 -7 -7 -7 -7 -7 -7 -7 -8 -8 -8 -8 -8 -8 -8 -8 -8
-7 -7 -6 -6 -6 -6 -6 -6 -6 -6 -6 -6 -6 -7 -7 -7 -7 -7 -7 -7 -7 -7 -6 -6 -6 -6 -5 -5 -5 -6 -6 -6 -6 -6 -6 -6 -6 -7 -7 -7 -7 -7 -7 -7 -7 -7 -7 -7 -7 -7 -7 -7 -7 -7 -8 -8 -8 -8 -8 -8 -8 -8 -8
-6 -7 -6 -6 -6 -6 -6 -6 -6 -6 -6 -6 -6 -6 -7 -7 -7 -7 -7 -7 -7 -6 -6 -6 -6 -5 -5 -5 -5 -5 -5 -5 -6 -6 -6 -6 -6 -6 -7 -7 -7 -7 -7 -7 -7 -7 -7 -7 -7 -7 -7 -7 -8 -8 -8 -8 -7 -7 -8 -8 -7 -7 -7
-6 -6 -6 -6 -6 -6 -6 -6 -6 -6 -6 -6 -6 -6 -7 -7 -7 -7 -7 -7 -7 -7 -6 -6 -6 -5 -5 -5 -5 -5 -5 -5 -6 -6 -6 -6 -6 -6 -7 -7 -7 -7 -7 -7 -7 -7 -7 -7 -8 -8 -8 -8 -8 -8 -8 -8 -7 -7 -7 -7 -7 -7 -7
-6 -6 -6 -7 -6 -6 -6 -6 -5 -6 -6 -6 -6 -6 -7 -7 -7 -7 -7 -7 -7 -7 -6 -6 -6 -5 -5 -5 -5 -5 -5 -6 -6 -6 -6 -6 -6 -6 -7 -7 -7 -7 -7 -7 -7 -7 -7 -8 -8 -8 -8 -8 -8 -8 -8 -8 -8 -7 -7 -7 -7 -7 -7
-6 -7 -7 -7 -6 -6 -6 -6 -6 -6 -6 -6 -6 -7 -7 -7 -7 -7 -7 -7 -7 -7 -6 -6 -6 -6 -6 -6 -6 -6 -6 -6 -6 -6 -6 -6 -6 -7 -7 -7 -7 -7 -8 -8 -8 -7 -7 -8 -8 -8 -8 -8 -8 -8 -8 -8 -8 -8 -8 -8 -8 -7 -8
-6 -6 -7 -7 -6 -6 -6 -6 -6 -6 -6 -6 -6 -7 -7 -7 -7 -7 -7 -7 -7 -7 -6 -6 -6 -6 -6 -6 -6 -6 -6 -6 -6 -6 -6 -6 -7 -7 -7 -7 -7 -7 -7 -8 -8 -7 -7 -7 -8 -8 -8 -8 -8 -8 -8 -8 -9 -9 -9 -8 -8 -7 -7
-6 -6 -6 -6 -6 -6 -6 -7 -6 -6 -6 -6 -6 -6 -7 -7 -7 -7 -7 -7 -7 -7 -6 -6 -6 -6 -6 -6 -6 -6 -6 -6 -6 -6 -6 -7 -7 -7 -7 -8 -8 -7 -7 -7 -7 -7 -7 -7 -8 -8 -8 -8 -8 -8 -8 -9 -9 -9 -9 -9 -8 -8 -8
-7 -7 -6 -6 -6 -6 -6 -7 -6 -6 -6 -6 -6 -6 -6 -7 -7 -7 -7 -7 -7 -7 -6 -6 -6 -6 -6 -6 -6 -6 -6 -7 -7 -7 -7 -7 -7 -7 -8 -8 -8 -8 -7 -7 -7 -7 -7 -7 -7 -8 -8 -8 -8 -8 -8 -9 -9 -9 -9 -9 -9 -8 -8
-7 -7 -6 -6 -6 -6 -6 -7 -6 -6 -6 -6 -6 -6 -6 -6 -7 -7 -7 -7 -7 -7 -6 -6 -6 -6 -6 -6 -7 -7 -7 -7 -7 -7 -7 -7 -7 -8 -8 -8 -8 -8 -8 -7 -7 -7 -7 -7 -7 -8 -8 -8 -8 -9 -9 -9 -9 -9 -9 -9 -9 -9 -8
-7 -7 -7 -6 -6 -6 -6 -6 -6 -6 -6 -6 -6 -6 -6 -6 -6 -7 -7 -7 -7 -7 -7 -6 -6 -6 -6 -6 -6 -7 -7 -7 -7 -7 -7 -8 -8 -8 -8 -8 -8 -8 -8 -8 -7 -7 -7 -7 -8 -8 -8 -8 -9 -9 -9 -9 -9 -9 -9 -9 -9 -9 -9
-7 -7 -7 -7 -6 -6 -6 -6 -6 -7 -6 -6 -6 -6 -6 -6 -6 -7 -7 -7 -7 -7 -7 -6 -6 -6 -6 -6 -7 -7 -7 -7 -7 -7 -7 -8 -8 -8 -8 -8 -8 -8 -8 -8 -8 -8 -8 -8 -7 -7 -8 -8 -9 -9 -9 -9 -9 -9 -9 -9 -9 -9 -9
-7 -7 -7 -6 -6 -6 -6 -6 -6 -7 -7 -6 -6 -6 -6 -6 -6 -6 -7 -7 -7 -7 -7 -7 -6 -6 -6 -6 -7 -7 -7 -7 -7 -7 -8 -8 -8 -8 -8 -8 -8 -8 -8 -8 -8 -8 -8 -8 -7 -7 -8 -8 -8 -9 -9 -9 -9 -9 -9 -9 -9 -9 -9
-7 -7 -7 -7 -6 -6 -6 -6 -6 -7 -7 -7 -7 -7 -7 -6 -6 -6 -7 -7 -7 -7 -7 -7 -7 -7 -7 -7 -7 -7 -7 -7 -7 -8 -8 -8 -8 -8 -8 -8 -8 -8 -8 -8 -8 -8 -8 -8 -8 -8 -8 -8 -9 -9 -9 -9 -9 -9 -9 -9 -9 -9 -9
-7 -7 -7 -7 -6 -6 -6 -6 -6 -7 -7 -7 -7 -7 -7 -7 -6 -6 -7 -7 -7 -7 -7 -7 -7 -7 -7 -7 -7 -7 -7 -8 -8 -8 -8 -8 -8 -8 -8 -8 -8 -8 -8 -8 -9 -9 -9 -9 -8 -8 -9 -9 -9 -9 -9 -8 -9 -9 -9 -9 -9 -9 -9
-7 -7 -8 -7 -6 -6 -6 -6 -6 -6 -7 -7 -7 -7 -7 -7 -6 -6 -7 -7 -7 -7 -7 -7 -7 -7 -7 -7 -7 -7 -8 -8 -8 -8 -8 -8 -8 -8 -8 -8 -8 -8 -8 -8 -9 -9 -9 -9 -9 -9 -9 -9 -9 -9 -9 -8 -8 -9 -9 -9 -9 -9 -9
-7 -7 -7 -7 -6 -6 -6 -6 -6 -6 -6 -7 -7 -7 -7 -7 -6 -6 -7 -7 -7 -7 -7 -7 -7 -7 -7 -7 -7 -7 -8 -8 -8 -8 -8 -8 -8 -8 -8 -8 -8 -8 -8 -8 -9 -9 -9 -9 -9 -9 -9 -9 -9 -9 -9 -8 -8 -8 -8 -9 -8 -8 -8
-7 -7 -7 -7 -6 -7 -7 -6 -6 -6 -6 -7 -7 -7 -7 -7 -6 -6 -6 -7 -7 -7 -7 -7 -7 -7 -7 -7 -8 -8 -8 -8 -8 -8 -8 -8 -8 -8 -8 -8 -8 -8 -8 -9 -9 -9 -9 -9 -9 -9 -9 -9 -9 -9 -9 -8 -8 -8 -8 -8 -8 -9 -9
-7 -6 -7 -7 -6 -7 -8 -6 -5 -6 -7 -7 -7 -7 -7 -7 -6 -6 -6 -6 -7 -7 -7 -7 -7 -8 -8 -8 -8 -8 -8 -8 -8 -8 -8 -8 -8 -8 -8 -8 -8 -8 -8 -9 -9 -9 -9 -9 -9 -9 -9 -9 -9 -9 -9 -8 -8 -8 -8 -8 -9 -9 -9
-7 -7 -7 -6 -6 -7 -8 -6 -5 -6 -6 -7 -7 -7 -7 -7 -6 -6 -6 -6 -7 -7 -7 -7 -8 -8 -8 -8 -8 -8 -8 -8 -8 -8 -8 -8 -8 -8 -8 -8 -8 -8 -9 -9 -9 -9 -9 -9 -9 -9 -9 -9 -9 -9 -9 -8 -8 -8 -8 -8 -9 -9 -9
-8 -8 -7 -6 -6 -7 -7 -6 -5 -6 -6 -6 -7 -7 -7 -7 -6 -6 -6 -6 -7 -7 -7 -7 -8 -8 -8 -8 -8 -8 -8 -8 -8 -8 -8 -8 -8 -8 -8 -8 -8 -8 -9 -9 -9 -9 -9 -9 -9 -9 -9 -9 -9 -8 -8 -8 -8 -9 -9 -9 -9 -9 -9
-8 -8 -8 -7 -7 -8 -7 -6 -7 -6 -5 -6 -7 -7 -7 -7 -6 -6 -6 -6 -7 -7 -7 -7 -7 -8 -8 -8 -8 -8 -8 -8 -8 -8 -8 -8 -8 -8 -8 -8 -8 -8 -9 -9 -9 -9 -9 -9 -9 -9 -9 -9 -8 -8 -8 -8 -9 -9 -9 -9 -9 -9 -9
-8 -8 -8 -8 -8 -8 -7 -7 -8 -7 -6 -6 -7 -7 -7 -7 -6 -6 -6 -7 -7 -7 -7 -7 -7 -7 -8 -8 -8 -8 -8 -8 -8 -8 -8 -8 -8 -8 -8 -8 -8 -9 -9 -9 -9 -9 -9 -9 -9 -9 -9 -8 -8 -8 -8 -9 -9 -9 -9 -9 -9 -9 -9
-8 -8 -9 -8 -8 -8 -7 -7 -7 -7 -7 -7 -7 -7 -7 -7 -7 -6 -7 -7 -7 -7 -7 -7 -7 -7 -8 -8 -8 -8 -8 -8 -8 -8 -8 -8 -8 -8 -8 -8 -8 -9 -9 -9 -9 -9 -9 -9 -9 -9 -9 -8 -8 -8 -8 -9 -9 -9 -9 -9 -9 -9 -9
-8 -9 -9 -9 -9 -8 -8 -8 -8 -8 -8 -7 -7 -7 -7 -7 -7 -7 -7 -7 -7 -7 -7 -7 -7 -7 -8 -8 -8 -8 -8 -8 -8 -8 -8 -8 -8 -8 -8 -9 -9 -9 -9 -9 -9 -9 -9 -9 -9 -9 -9 -9 -9 -9 -9 -9 -9 -9 -9 -9 -9 -9 -9
-9 -9 -10 -9 -8 -8 -8 -8 -8 -8 -8 -7 -7 -7 -7 -7 -7 -7 -7 -7 -7 -7 -7 -7 -7 -8 -8 -8 -8 -8 -8 -8 -8 -8 -8 -8 -8 -9 -9 -9 -9 -9 -9 -9 -9 -9 -9 -9 -9 -9 -9 -9 -9 -9 -9 -9 -9 -9 -9 -9 -9 -9 -9
-9 -9 -10 -9 -8 -8 -9 -8 -8 -8 -8 -8 -7 -7 -8 -8 -8 -7 -7 -7 -7 -7 -8 -7 -7 -8 -8 -8 -8 -8 -8 -8 -8 -8 -8 -8 -8 -9 -8 -9 -9 -9 -9 -9 -9 -9 -9 -9 -9 -9 -9 -9 -9 -9 -9 -9 -9 -9 -9 -9 -10 -10 -9
-9 -9 -9 -9 -9 -9 -8 -8 -8 -8 -7 -7 -8 -8 -8 -8 -8 -8 -8 -8 -8 -8 -7 -7 -8 -8 -8 -8 -8 -8 -8 -8 -8 -8 -8 -8 -8 -8 -8 -9 -9 -9 -9 -9 -9 -9 -9 -9 -9 -9 -9 -10 -10 -10 -9 -9 -10 -10 -9 -9 -10 -10 -10
-9 -9 -9 -9 -9 -8 -8 -8 -8 -8 -8 -8 -8 -8 -8 -8 -8 -8 -8 -8 -8 -8 -8 -8 -8 -8 -8 -8 -8 -8 -8 -8 -8 -8 -8 -8 -8 -8 -8 -9 -9 -9 -9 -9 -9 -9 -9 -9 -9 -9 -10 -10 -10 -10 -10 -9 -10 -10 -10 -10 -10 -10 -10
-9 -9 -9 -9 -9 -8 -8 -8 -8 -8 -8 -8 -8 -8 -8 -8 -8 -8 -8 -8 -8 -8 -8 -8 -8 -8 -8 -8 -8 -8 -8 -8 -8 -8 -8 -8 -9 -9 -9 -9 -9 -9 -9 -9 -9 -9 -9 -10 -10 -10 -10 -10 -10 -10 -10 -10 -10 -10 -10 -10 -10 -10 -10
-9 -9 -9 -9 -9 -9 -8 -8 -8 -8 -8 -8 -8 -8 -8 -8 -8 -8 -8 -8 -8 -8 -8 -8 -8 -8 -8 -8 -8 -8 -8 -8 -8 -8 -9 -9 -9 -9 -9 -9 -9 -9 -9 -10 -10 -10 -10 -10 -10 -10 -10 -10 -10 -10 -10 -10 -10 -10 -10 -10 -10 -10 -10
-9 -9 -9 -9 -9 -9 -9 -9 -9 -8 -8 -8 -8 -8 -8 -8 -8 -8 -8 -8 -8 -8 -8 -8 -8 -8 -8 -8 -8 -8 -8 -8 -8 -9 -9 -9 -9 -9 -9 -9 -9 -9 -10 -10 -10 -10 -10 -10 -10 -10 -10 -10 -10 -10 -10 -10 -10 -10 -10 -10 -10 -11 -11
Height
5884 5885 5887 5889 5891 5893 5894 5895 5896 5895 5895 5894 5893 5895 5896 5898 5899 5901 5902 5902 5903 5903 5904 5904 5905 5907 5908 5908 5909 5909 5910 5910 5910 5911 5911 5911 5911 5911 5910 5911 5912 5913 5913 5912 5912 5912 5911 5911 5910 5909 5909 5908 5907 5906 5905 5904 5903 5902 5901 5900 5899 5898 5896
5882 5883 5885 5886 5889 5891 5891 5892 5893 5893 5893 5892 5891 5892 5894 5896 5897 5898 5899 5899 5900 5900 5901 5902 5903 5904 5905 5906 5906 5907 5908 5908 5908 5909 5909 5909 5909 5909 5909 5909 5910 5911 5911 5911 5911 5910 5909 5909 5909 5908 5907 5906 5905 5904 5903 5902 5901 5899 5898 5897 5896 5895 5893
5879 5882 5883 5884 5886 5888 5888 5889 5890 5891 5891 5890 5889 5890 5892 5894 5895 5896 5896 5897 5897 5898 5899 5900 5901 5902 5903 5903 5904 5905 5905 5906 5906 5907 5907 5907 5907 5907 5907 5908 5909 5909 5909 5909 5909 5908 5908 5907 5907 5906 5905 5904 5903 5902 5901 5900 5898 5897 5896 5895 5893 5892 5891
5875 5879 5882 5882 5884 5884 5885 5886 5887 5888 5888 5888 5888 5889 5891 5892 5893 5894 5895 5895 5895 5896 5896 5897 5898 5899 5900 5901 5902 5902 5903 5903 5904 5904 5905 5905 5905 5905 5906 5906 5907 5908 5908 5908 5908 5907 5906 5905 5904 5904 5903 5902 5901 5900 5899 5898 5896 5895 5894 5892 5891 5889 5888
5872 5876 5879 5881 5882 5883 5883 5884 5885 5885 5886 5887 5887 5888 5889 5891 5892 5893 5893 5893 5893 5893 5894 5894 5895 5896 5897 5898 5899 5900 5901 5901 5901 5902 5902 5903 5903 5903 5904 5905 5906 5906 5906 5906 5906 5905 5904 5903 5902 5901 5901 5900 5899 5898 5897 5895 5894 5892 5891 5889 5887 5886 5884
5871 5872 5877 5880 5881 5882 5882 5882 5882 5883 5884 5885 5885 5886 5888 5889 5890 5891 5891 5891 5892 5891 5892 5892 5893 5894 5895 5896 5897 5897 5898 5898 5899 5899 5900 5901 5901 5901 5903 5904 5905 5905 5905 5904 5904 5903 5902 5901 5900 5899 5898 5897 5897 5896 5894 5893 5892 5890 5888 5886 5884 5882 5880
5872 5869 5873 5877 5878 5879 5880 5881 5881 5881 5881 5881 5882 5883 5885 5887 5888 5889 5890 5890 5890 5890 5890 5890 5891 5892 5893 5893 5894 5895 5896 5896 5897 5897 5898 5899 5899 5900 5901 5903 5903 5903 5903 5902 5901 5901 5900 5898 5898 5897 5896 5895 5895 5894 5892 5890 5889 5887 5885 5883 5881 5879 5876
5874 5870 5870 5875 5877 5877 5878 5879 5880 5881 5881 5880 5881 5881 5882 5884 5886 5887 5888 5888 5888 5888 5889 5889 5890 5890 5891 5891 5892 5893 5893 5894 5895 5896 5897 5897 5897 5898 5900 5901 5901 5900 5900 5900 5899 5898 5897 5896 5895 5895 5894 5893 5893 5892 5890 5888 5887 5886 5883 5881 5879 5876 5874
5872 5869 5868 5872 5875 5875 5876 5877 5878 5880 5881 5881 5881 5879 5878 5880 5883 5885 5886 5887 5886 5887 5887 5887 5888 5889 5889 5889 5890 5891 5891 5892 5893 5894 5895 5896 5896 5897 5899 5899 5899 5898 5898 5897 5896 5896 5895 5894 5893 5892 5892 5891 5890 5889 5888 5886 5885 5884 5882 5880 5877 5875 5872
5868 5867 5866 5868 5870 5871 5874 5876 5876 5877 5879 5880 5879 5877 5876 5877 5880 5883 5884 5885 5885 5885 5885 5886 5887 5887 5887 5887 5888 5889 5889 5890 5891 5892 5893 5894 5895 5896 5897 5897 5896 5895 5895 5894 5894 5894 5893 5892 5891 5891 5890 5889 5888 5887 5886 5884 5883 5881 5880 5878 5875 5873 5871
5866 5865 5864 5864 5865 5867 5869 5871 5873 5874 5874 5875 5875 5874 5874 5875 5878 5880 5882 5882 5883 5883 5883 5884 5885 5886 5886 5885 5886 5887 5888 5888 5889 5890 5891 5893 5893 5894 5894 5894 5894 5893 5892 5892 5892 5892 5891 5890 5889 5888 5888 5887 5886 5885 5883 5881 5880 5878 5877 5875 5873 5871 5869
5862 5862 5861 5861 5861 5863 5864 5865 5868 5870 5870 5870 5871 5871 5872 5873 5875 5877 5879 5880 5880 5880 5881 5882 5883 5884 5884 5884 5884 5886 5886 5886 5887 5889 5890 5891 5892 5892 5892 5891 5891 5891 5889 5888 5888 5889 5889 5888 5887 5886 5885 5884 5883 5882 5880 5879 5877 5875 5874 5872 5870 5868 5866
5856 5858 5858 5858 5858 5860 5861 5861 5863 5866 5866 5867 5868 5868 5870 5871 5873 5875 5876 5878 5878 5878 5878 5879 5881 5882 5883 5882 5882 5884 5884 5884 5885 5887 5888 5889 5889 5889 5889 5889 5889 5889 5887 5885 5884 5885 5886 5885 5884 5883 5882 5880 5879 5879 5877 5876 5874 5872 5870 5868 5866 5865 5863
5854 5856 5856 5856 5855 5857 5858 5858 5859 5862 5864 5864 5865 5866 5867 5868 5870 5872 5873 5875 5875 5875 5876 5877 5878 5880 5881 5880 5880 5881 5882 5882 5883 5885 5886 5886 5886 5886 5887 5886 5885 5886 5885 5884 5882 5881 5882 5882 5881 5880 5879 5878 5876 5875 5874 5872 5871 5869 5867 5865 5863 5861 5859
5850 5851 5851 5852 5853 5854 5855 5855 5855 5858 5861 5862 5862 5863 5864 5865 5867 5869 5870 5872 5872 5872 5873 5875 5876 5877 5878 5878 5878 5879 5880 5880 5881 5883 5884 5883 5883 5884 5884 5883 5882 5882 5882 5882 5881 5879 5879 5878 5878 5877 5876 5875 5873 5871 5870 5869 5867 5866 5863 5861 5859 5857 5856
5844 5845 5845 5848 5850 5851 5852 5853 5853 5855 5857 5858 5859 5860 5861 5862 5864 5866 5867 5869 5869 5870 5870 5872 5873 5873 5874 5875 5876 5876 5877 5878 5879 5881 5881 5881 5881 5881 5880 5880 5879 5878 5878 5879 5878 5877 5876 5875 5875 5874 5873 5871 5870 5868 5867 5866 5864 5862 5859 5857 5855 5853 5852
5842 5842 5842 5844 5846 5848 5849 5850 5852 5853 5853 5855 5856 5857 5858 5859 5861 5863 5864 5865 5867 5867 5867 5869 5870 5870 5871 5873 5873 5874 5874 5876 5877 5878 5878 5878 5878 5878 5877 5877 5876 5875 5875 5875 5875 5874 5873 5872 5871 5871 5870 5868 5867 5865 5863 5862 5861 5858 5855 5853 5851 5849 5847
5839 5841 5840 5839 5840 5844 5846 5847 5850 5851 5850 5851 5853 5854 5855 5856 5858 5859 5861 5862 5864 5864 5864 5866 5867 5868 5868 5869 5871 5871 5872 5873 5874 5875 5875 5875 5874 5874 5874 5874 5873 5873 5872 5871 5871 5870 5869 5868 5868 5867 5866 5865 5864 5862 5861 5859 5857 5855 5852 5849 5847 5845 5843
5833 5836 5836 5835 5836 5839 5841 5843 5846 5847 5847 5848 5850 5851 5853 5853 5854 5856 5858 5859 5860 5861 5861 5862 5864 5865 5866 5867 5868 5869 5870 5871 5872 5872 5872 5872 5871 5871 5871 5870 5870 5870 5869 5868 5867 5867 5866 5865 5864 5863 5862 5861 5860 5859 5857 5855 5854 5851 5848 5845 5843 5842 5839
5828 5829 5831 5832 5831 5832 5834 5837 5841 5842 5844 5845 5847 5849 5850 5850 5851 5853 5854 5856 5857 5858 5858 5859 5861 5862 5863 5864 5865 5866 5867 5868 5869 5869 5869 5869 5868 5868 5867 5867 5867 5866 5866 5866 5865 5864 5862 5861 5860 5859 5857 5856 5856 5854 5853 5851 5849 5847 5844 5841 5839 5837 5835
5824 5824 5825 5827 5827 5827 5828 5832 5837 5839 5840 5842 5844 5845 5846 5847 5848 5849 5850 5852 5853 5855 5855 5856 5858 5860 5860 5861 5862 5863 5864 5865 5866 5866 5866 5866 5865 5865 5864 5864 5864 5864 5864 5863 5862 5860 5859 5857 5856 5855 5853 5852 5851 5850 5847 5845 5844 5842 5840 5837 5835 5833 5830
5818 5819 5819 5821 5824 5825 5824 5827 5833 5836 5837 5838 5839 5841 5842 5844 5845 5846 5847 5848 5850 5851 5852 5853 5854 5857 5857 5858 5859 5861 5861 5862 5862 5863 5863 5863 5862 5862 5862 5862 5862 5862 5861 5860 5859 5857 5855 5854 5853 5851 5850 5848 5847 5844 5842 5840 5839 5837 5835 5832 5830 5828 5826
5811 5812 5814 5815 5819 5821 5821 5822 5826 5832 5835 5835 5835 5837 5839 5840 5841 5842 5843 5844 5846 5848 5849 5849 5851 5853 5854 5855 5856 5857 5858 5859 5859 5859 5859 5859 5859 5859 5859 5859 5859 5858 5857 5856 5855 5853 5851 5850 5849 5847 5846 5844 5842 5839 5837 5835 5834 5832 5830 5828 5825 5823 5821
5803 5805 5806 5809 5813 5816 5815 5816 5820 5825 5830 5831 5831 5833 5835 5835 5836 5838 5839 5840 5842 5844 5845 5846 5848 5850 5851 5852 5853 5854 5855 5855 5856 5856 5856 5856 5856 5856 5855 5855 5855 5854 5853 5852 5850 5848 5847 5846 5845 5843 5841 5840 5838 5835 5833 5831 5830 5828 5826 5823 5822 5819 5817
5796 5798 5800 5803 5808 5810 5808 5810 5815 5819 5823 5826 5827 5828 5830 5831 5832 5833 5835 5836 5838 5840 5841 5842 5844 5846 5847 5848 5849 5850 5851 5851 5852 5852 5853 5853 5852 5852 5851 5851 5850 5849 5848 5847 5845 5843 5842 5841 5840 5838 5837 5835 5834 5832 5829 5827 5825 5824 5822 5820 5818 5816 5814
5788 5790 5792 5795 5801 5803 5803 5805 5809 5811 5815 5820 5822 5823 5825 5826 5827 5829 5830 5831 5833 5836 5837 5838 5840 5843 5844 5844 5845 5846 5847 5847 5848 5848 5848 5848 5848 5847 5847 5846 5845 5844 5843 5842 5841 5839 5837 5836 5835 5834 5832 5831 5829 5828 5826 5823 5821 5820 5818 5816 5814 5812 5810
5780 5783 5785 5788 5793 5796 5797 5799 5802 5804 5809 5815 5818 5818 5819 5821 5823 5824 5825 5826 5828 5831 5833 5834 5836 5838 5839 5840 5841 5842 5843 5843 5844 5844 5844 5844 5844 5843 5843 5842 5841 5840 5838 5837 5836 5834 5832 5831 5830 5828 5827 5826 5824 5823 5821 5819 5817 5816 5814 5812 5810 5808 5807
5774 5778 5779 5781 5784 5788 5791 5793 5795 5798 5803 5809 5811 5812 5813 5816 5818 5819 5820 5822 5824 5827 5829 5830 5832 5833 5834 5835 5837 5838 5839 5839 5840 5840 5840 5840 5840 5839 5838 5837 5836 5836 5834 5832 5831 5829 5827 5826 5824 5823 5822 5820 5819 5817 5816 5815 5814 5812 5810 5808 5806 5804 5803
5767 5771 5773 5774 5777 5782 5786 5788 5790 5793 5798 5802 5804 5806 5808 5810 5813 5814 5816 5817 5819 5822 5824 5825 5828 5829 5830 5831 5833 5834 5834 5835 5835 5835 5835 5835 5835 5834 5834 5833 5832 5831 5830 5828 5826 5824 5822 5821 5820 5818 5817 5815 5814 5813 5812 5810 5809 5807 5806 5804 5802 5800 5798
5759 5764 5767 5769 5773 5778 5781 5783 5787 5790 5792 5795 5798 5799 5801 5805 5807 5809 5811 5812 5814 5817 5819 5822 5824 5825 5826 5827 5828 5829 5830 5830 5830 5831 5831 5830 5830 5829 5829 5829 5829 5828 5826 5824 5822 5820 5818 5817 5815 5813 5812 5810 5809 5808 5807 5805 5804 5802 5800 5798 5797 5795 5794
5756 5759 5760 5761 5765 5770 5773 5777 5781 5783 5785 5788 5791 5793 5796 5800 5802 5804 5805 5807 5810 5813 5816 5817 5819 5820 5821 5822 5823 5824 5824 5825 5825 5826 5826 5825 5824 5824 5824 5824 5824 5823 5822 5820 5818 5816 5815 5812 5810 5808 5807 5806 5804 5803 5802 5800 5798 5796 5794 5793 5791 5790 5788
5754 5755 5755 5756 5759 5761 5764 5768 5771 5773 5777 5781 5785 5788 5792 5795 5797 5799 5801 5803 5806 5809 5811 5812 5813 5814 5816 5817 5818 5818 5819 5820 5820 5820 5820 5819 5818 5817 5817 5818 5818 5817 5816 5814 5813 5812 5810 5807 5805 5803 5802 5800 5799 5798 5796 5794 5792 5791 5789 5788 5786 5784 5782
5749 5750 5751 5753 5756 5758 5759 5760 5762 5766 5771 5776 5779 5784 5788 5790 5792 5795 5797 5799 5802 5803 5805 5806 5807 5809 5811 5812 5812 5813 5813 5814 5814 5814 5813 5813 5812 5812 5811 5812 5812 5811 5810 5809 5808 5806 5804 5802 5800 5798 5796 5795 5793 5792 5791 5789 5787 5785 5784 5782 5779 5777 5775
5744 5745 5747 5749 5753 5756 5756 5756 5757 5761 5766 5771 5775 5779 5783 5785 5788 5790 5792 5794 5796 5797 5799 5801 5802 5804 5805 5805 5806 5807 5807 5808 5808 5808 5808 5807 5807 5806 5806 5806 5806 5805 5805 5803 5801 5800 5798 5796 5794 5792 5790 5789 5787 5786 5785 5784 5782 5779 5778 5775 5773 5771 5768
5739 5742 5744 5746 5748 5750 5750 5750 5753 5758 5762 5766 5770 5775 5778 5780 5782 5784 5787 5789 5790 5792 5794 5796 5797 5798 5799 5800 5800 5801 5801 5801 5802 5802 5802 5802 5801 5800 5801 5801 5800 5799 5798 5796 5795 5793 5792 5790 5788 5786 5784 5783 5781 5780 5779 5777 5775 5773 5771 5769 5767 5765 5762
5733 5736 5740 5743 5745 5745 5744 5745 5749 5754 5758 5762 5766 5769 5772 5774 5777 5779 5782 5783 5785 5787 5788 5790 5791 5792 5793 5794 5795 5795 5796 5796 5796 5796 5796 5795 5794 5794 5794 5794 5794 5793 5791 5790 5789 5787 5786 5784 5782 5780 5778 5777 5775 5774 5773 5771 5769 5767 5765 5763 5761 5759 5756
5730 5732 5736 5740 5743 5743 5743 5745 5748 5752 5755 5758 5761 5764 5767 5770 5773 5775 5777 5778 5780 5782 5783 5784 5786 5786 5787 5789 5789 5789 5789 5790 5790 5790 5790 5788 5787 5787 5788 5788 5788 5787 5785 5783 5782 5781 5780 5778 5776 5774 5773 5771 5769 5768 5767 5765 5763 5761 5759 5757 5755 5753 5750
5728 5730 5733 5736 5739 5741 5742 5744 5747 5749 5751 5754 5757 5760 5764 5766 5768 5770 5771 5773 5774 5775 5777 5778 5780 5780 5782 5783 5783 5782 5783 5783 5783 5783 5784 5783 5782 5782 5782 5782 5782 5780 5779 5777 5776 5775 5774 5772 5770 5769 5767 5765 5764 5762 5761 5759 5757 5755 5753 5751 5749 5746 5744
Wind_Speed
24 26 25 24 21 18 17 15 15 19 21 19 14 14 17 18 20 21 21 22 22 22 23 23 22 21 20 19 20 19 19 19 19 18 16 16 17 17 17 16 14 14 15 16 17 17 17 17 17 18 19 20 21 21 21 22 23 23 23 24 25 26 27
24 22 21 23 21 17 16 15 16 18 19 17 13 12 14 15 16 18 19 21 23 24 24 24 23 22 20 20 20 20 20 21 20 19 17 18 18 18 17 17 15 14 16 17 17 17 17 17 18 19 20 22 23 23 23 24 24 24 24 24 26 27 28
22 17 17 20 19 17 17 17 16 15 13 12 10 8 9 10 12 14 17 20 22 23 24 24 24 23 22 22 22 22 22 22 21 20 19 19 19 19 18 17 16 16 17 17 17 17 18 19 19 20 21 22 23 24 24 24 24 24 25 26 27 28 29
24 19 17 18 18 19 20 18 16 12 9 8 7 7 7 7 9 12 14 17 19 21 22 23 24 25 24 24 24 23 23 22 22 22 21 20 19 19 18 18 17 17 17 16 17 18 19 19 20 20 21 22 23 24 24 24 25 26 27 28 29 30 31
24 21 18 16 17 20 20 19 16 11 8 8 7 6 6 6 8 10 12 14 16 18 19 21 22 23 23 23 23 24 23 22 22 23 22 20 19 19 18 18 17 17 16 16 17 17 18 19 20 20 21 22 23 23 24 25 26 28 29 31 32 32 33
25 25 20 15 19 21 21 20 18 14 12 11 9 9 8 7 6 8 11 12 14 15 17 18 19 20 20 21 22 23 23 23 23 23 22 20 19 19 18 17 17 17 16 17 17 17 17 18 19 20 21 23 23 23 25 27 28 29 32 33 35 36 37
25 31 24 19 20 22 24 22 19 18 17 16 15 12 9 6 6 7 10 11 12 14 15 16 17 17 18 19 21 22 23 23 23 23 22 20 19 19 18 17 16 16 16 16 17 17 18 18 17 18 20 22 23 24 26 28 29 31 33 34 36 38 40
26 35 33 23 18 21 26 25 22 20 18 17 15 12 7 7 8 8 9 11 12 14 14 15 16 16 16 17 19 20 21 22 22 21 20 19 19 18 17 16 16 16 15 15 16 17 17 17 17 17 19 22 23 24 26 28 30 31 32 34 34 36 39
29 37 38 27 22 25 27 28 27 24 22 20 19 14 9 8 9 9 10 11 13 13 14 15 15 14 16 16 17 18 19 19 20 19 18 18 18 18 17 16 15 15 15 15 15 15 15 16 17 18 19 21 22 23 25 27 29 30 31 32 32 32 33
28 34 36 30 29 30 28 27 28 27 24 22 21 15 9 7 9 10 10 10 12 14 15 15 13 12 14 15 15 15 16 17 17 17 17 16 17 17 16 15 14 15 15 14 13 14 15 15 16 17 19 20 21 23 25 27 29 30 31 32 31 29 27
29 32 33 33 34 31 27 28 27 25 24 21 18 13 9 8 11 12 11 10 12 15 16 15 12 11 12 14 14 13 14 16 16 15 16 15 15 16 15 14 14 15 15 15 14 13 15 16 17 19 20 22 23 24 26 28 29 30 31 32 32 29 28
32 35 37 38 37 31 26 28 27 23 23 21 16 14 12 11 12 13 12 11 12 15 17 16 13 11 13 15 15 13 14 16 16 15 15 14 14 15 15 15 15 15 15 16 16 15 15 16 18 20 22 24 25 26 27 29 30 31 31 32 33 32 32
34 36 40 40 38 32 28 30 30 25 25 24 19 17 16 14 14 14 14 12 13 15 17 16 15 13 13 16 16 14 15 16 16 15 14 14 14 14 15 16 16 14 14 17 19 19 18 18 20 21 23 26 28 29 30 31 33 33 33 33 33 33 34
35 33 36 38 37 32 27 31 35 31 29 29 25 21 19 17 16 16 15 15 14 16 16 16 16 15 14 16 17 15 15 18 17 15 14 13 14 15 15 16 17 15 14 16 19 22 22 22 22 24 27 29 32 34 35 36 37 37 36 36 35 34 35
39 36 36 39 38 35 30 34 38 35 31 32 28 25 22 19 17 17 17 17 15 16 17 15 15 15 13 15 17 16 16 18 17 14 13 13 14 15 15 17 18 17 16 16 18 21 23 24 24 26 29 32 34 37 39 40 41 41 40 40 38 36 36
40 39 40 40 38 36 34 35 37 36 34 34 31 28 26 23 20 18 18 18 17 16 17 15 13 14 14 15 16 17 17 18 16 13 13 13 15 15 15 16 17 18 18 17 18 21 23 25 26 29 31 34 36 39 41 42 43 43 43 42 41 38 37
36 32 35 40 40 39 39 39 38 37 37 36 33 30 28 25 21 19 19 19 17 17 18 16 13 14 16 16 16 18 18 16 14 13 13 15 15 15 16 17 18 20 21 21 21 22 25 27 29 31 33 35 38 41 43 43 43 43 43 43 42 40 38
37 33 33 39 42 42 42 41 39 40 41 38 36 34 32 28 23 20 20 18 16 17 19 18 15 15 17 16 16 17 17 15 14 14 15 16 16 17 18 19 20 21 23 25 25 26 28 30 31 32 34 36 39 41 43 44 43 43 42 42 42 41 41
35 38 40 41 41 41 40 38 38 42 43 41 39 37 35 33 27 21 19 19 18 19 20 20 17 16 17 17 16 16 15 15 16 16 16 17 18 19 21 22 22 24 25 27 29 30 32 34 34 35 37 39 41 43 44 44 43 42 42 42 42 42 43
33 38 43 43 42 40 39 37 38 43 45 43 41 38 36 36 32 25 21 21 21 20 21 21 19 16 17 18 16 16 16 17 18 18 18 19 20 21 22 23 24 26 28 29 31 33 36 38 39 40 41 43 44 45 45 45 44 43 43 43 43 43 44
33 35 41 45 45 43 43 40 36 39 44 44 41 40 38 37 34 29 25 24 23 22 22 23 20 17 17 19 17 17 18 18 19 19 19 20 21 22 24 25 26 27 29 32 34 36 38 40 42 43 45 46 46 46 46 46 46 45 44 43 43 43 44
43 40 41 43 45 44 44 43 37 34 39 43 43 42 41 39 36 31 27 25 25 24 23 24 22 19 19 19 18 17 18 18 19 19 19 21 22 24 26 27 28 29 32 34 36 38 40 42 43 44 46 47 47 48 48 46 46 46 44 43 43 43 42
55 52 50 49 50 49 48 49 45 38 37 41 44 43 41 40 39 35 31 28 27 26 26 26 24 21 21 20 19 19 20 21 22 22 23 24 25 27 29 30 31 32 34 36 39 41 43 44 45 46 46 46 48 50 49 47 46 46 43 42 43 42 40
63 63 61 59 58 56 55 55 51 44 39 41 44 44 42 42 41 39 35 32 30 29 29 28 26 24 23 22 23 24 25 26 26 27 27 27 28 31 32 33 34 35 37 39 41 43 45 46 46 45 44 46 49 50 50 48 46 45 43 42 41 39 38
58 62 63 61 58 56 56 53 48 45 43 42 43 44 43 42 42 42 40 36 32 30 31 30 28 27 26 25 26 28 28 30 31 32 31 30 31 33 35 36 37 37 39 41 43 46 49 45 41 41 43 46 49 50 49 48 46 44 43 42 40 37 37
44 51 56 58 55 52 52 50 46 47 47 44 43 44 43 43 44 44 43 39 35 32 32 32 31 29 29 30 31 31 31 33 34 35 35 34 34 36 37 39 40 41 43 45 45 48 49 44 39 41 45 47 48 47 46 46 45 44 43 42 40 39 38
37 40 45 51 48 43 46 49 49 51 50 46 44 46 45 45 46 46 44 41 37 34 33 34 33 33 33 35 34 33 34 35 36 37 37 37 37 38 40 41 43 45 47 49 50 50 47 42 41 44 45 45 45 44 44 44 43 43 42 41 41 40 39
37 35 37 42 40 35 38 45 49 51 49 46 47 50 50 49 50 48 45 42 39 36 36 36 36 36 37 37 37 36 36 37 38 39 39 40 40 41 42 44 45 47 50 53 54 50 44 42 43 44 44 43 43 43 43 43 42 43 42 42 41 41 41
40 38 38 39 39 36 38 42 45 45 43 42 47 52 52 52 51 48 45 42 40 39 39 38 38 38 38 39 38 38 39 40 41 41 42 42 43 43 45 46 47 49 50 50 48 43 41 43 43 43 43 43 43 43 43 43 43 44 44 44 44 44 43
40 40 39 37 36 38 42 45 43 40 38 41 48 53 53 52 50 47 45 44 42 42 41 40 38 38 39 40 41 41 42 42 43 43 44 45 46 46 47 48 49 50 48 45 43 41 42 43 43 43 43 43 43 44 44 44 45 46 46 46 47 46 45
37 38 40 39 38 40 45 47 45 42 42 46 52 55 54 51 48 46 46 45 44 42 41 40 40 40 41 42 43 44 45 45 45 45 46 48 49 50 50 49 49 50 47 45 45 45 44 44 43 43 43 43 44 44 45 46 47 47 48 48 48 47 47
31 35 40 42 43 43 45 47 46 46 46 49 52 53 51 48 47 47 46 45 43 42 42 43 43 43 44 44 45 46 46 47 46 47 49 50 52 53 52 50 49 48 46 45 47 48 47 45 44 44 44 44 45 45 46 47 48 48 49 49 48 48 47
31 37 43 46 45 42 42 44 45 46 46 48 50 49 47 46 46 45 45 44 44 44 45 46 45 45 45 46 46 47 47 47 48 49 51 52 53 55 55 54 52 48 44 44 47 49 48 46 45 44 45 45 46 47 47 48 48 49 49 48 47 48 48
32 38 44 45 42 41 41 43 43 43 45 47 48 46 45 44 44 44 45 46 46 47 47 46 46 46 46 47 47 48 48 49 50 51 52 53 55 56 57 57 55 48 43 44 47 49 49 47 45 45 46 46 47 48 48 48 49 49 49 48 48 48 49
31 36 42 42 40 41 41 39 37 38 41 45 47 47 46 46 46 45 46 46 47 47 47 47 47 47 47 48 49 49 49 50 51 52 53 55 56 56 56 56 52 45 43 45 47 49 49 48 46 46 47 47 48 48 49 49 49 49 49 49 49 49 50
32 36 41 42 41 41 38 35 34 35 38 42 45 48 49 48 47 46 46 46 47 48 48 49 48 48 49 50 50 50 50 51 52 53 54 56 57 56 56 55 51 45 43 45 48 50 50 48 46 47 47 47 48 49 49 49 49 49 49 49 50 50 50
33 37 41 42 42 39 36 35 34 35 36 39 43 46 48 49 48 47 47 47 48 49 50 50 51 51 52 51 51 51 51 52 53 54 55 57 56 56 57 56 52 46 45 48 50 51 49 47 46 46 47 47 49 49 49 49 49 49 50 50 50 50 49
35 39 41 42 41 38 36 36 36 36 37 39 41 43 44 45 46 46 47 48 49 50 51 52 53 54 54 54 53 53 53 53 54 54 54 54 55 57 58 57 53 48 48 51 51 50 48 46 46 47 47 48 49 49 48 48 49 49 50 49 49 49 49
Wind_Direction
234 241 243 241 237 239 250 254 253 250 245 238 241 255 260 260 259 256 252 247 246 246 246 248 249 249 249 249 250 252 254 258 260 261 267 271 269 266 267 268 269 273 276 281 285 285 286 290 295 301 306 309 314 317 319 321 323 324 323 321 320 318 317
239 240 240 238 235 230 234 242 248 249 246 238 235 247 257 260 260 256 252 248 245 245 245 246 248 249 249 248 249 251 253 257 259 259 264 268 267 266 266 268 269 271 275 280 284 287 289 293 298 304 308 312 316 319 320 320 322 322 321 318 316 315 315
236 223 225 233 229 222 224 230 237 238 238 235 227 236 249 254 257 255 253 251 249 248 248 248 249 249 248 247 248 249 252 256 257 257 261 265 266 266 265 267 270 272 277 283 287 291 294 299 304 308 311 315 318 320 319 319 319 320 319 316 315 315 315
239 230 228 230 222 221 227 228 227 225 226 228 215 218 238 249 258 262 260 258 257 255 254 252 251 250 249 249 248 250 252 255 255 255 259 265 266 264 264 267 271 275 279 286 291 295 300 305 308 308 311 315 317 318 318 319 319 319 318 317 316 317 316
251 245 222 221 227 229 236 233 220 209 207 218 215 217 240 257 268 272 271 268 264 261 258 255 253 252 252 251 249 249 250 250 252 254 260 265 265 263 265 269 273 276 281 288 293 298 303 305 304 304 306 310 315 317 317 319 320 320 319 318 318 318 316
254 250 225 241 254 236 234 237 223 207 202 209 215 222 237 255 273 281 279 277 271 265 263 259 257 255 253 251 247 245 246 247 249 255 261 265 265 265 268 271 275 279 284 288 292 299 303 303 303 303 304 308 314 318 317 319 321 320 319 319 320 319 317
244 253 249 270 270 238 233 241 232 218 213 212 211 211 222 246 274 287 286 285 275 266 266 262 259 256 252 249 247 246 248 250 252 257 262 265 265 266 270 273 277 281 285 288 293 298 300 302 307 307 307 311 315 317 317 318 320 319 318 320 322 321 320
235 256 263 270 265 246 240 237 233 230 231 232 221 203 203 241 269 286 289 289 277 267 268 267 262 259 255 252 251 252 254 256 258 260 262 263 263 266 271 275 279 283 286 290 294 296 299 304 309 309 309 313 315 316 317 317 318 318 318 321 323 322 322
221 246 258 259 258 259 251 239 236 237 238 242 232 207 194 229 257 276 284 285 276 268 267 268 266 263 260 258 257 258 260 261 261 260 259 260 262 267 272 276 282 288 290 292 294 301 309 311 312 312 314 317 318 317 318 317 318 318 319 322 323 323 324
215 238 254 259 259 259 251 239 235 232 231 239 238 221 198 220 249 264 276 282 275 268 264 264 264 262 261 261 259 261 264 263 260 257 257 259 264 269 273 279 286 291 292 293 298 310 320 320 318 317 318 319 318 318 319 318 319 319 320 321 320 319 319
219 230 244 249 251 252 248 240 232 226 229 235 239 234 218 226 246 258 270 279 273 264 260 259 257 253 257 260 259 261 263 260 259 257 258 262 268 272 275 280 286 291 294 297 302 311 319 320 319 317 315 315 316 317 318 318 319 318 317 316 315 312 308
221 222 232 239 242 245 249 249 239 229 231 233 233 237 235 235 244 254 264 273 272 263 257 253 248 243 253 260 261 262 262 261 261 259 260 267 273 273 275 279 286 293 298 301 306 311 314 315 314 313 313 312 312 313 314 314 314 314 313 310 309 309 305
220 217 224 233 240 244 248 253 248 235 233 236 233 232 236 239 242 252 261 267 270 264 255 250 245 238 245 258 262 261 262 264 262 261 267 274 275 273 275 281 285 289 295 302 307 310 312 312 311 311 311 311 311 311 310 310 310 312 312 309 306 304 303
230 229 230 236 242 244 246 251 250 240 235 238 237 233 236 240 243 250 259 264 267 263 254 249 246 239 239 251 259 259 261 263 263 266 274 276 273 273 277 281 283 285 289 297 303 307 310 313 314 314 313 313 313 312 311 311 310 311 312 309 305 301 299
231 238 242 244 244 241 240 245 244 241 239 241 241 239 238 240 244 249 256 263 266 263 256 249 246 243 237 243 255 258 257 261 265 271 275 272 272 276 277 279 282 286 290 294 299 304 308 312 313 314 314 315 315 315 315 314 312 310 310 308 305 301 297
226 235 241 243 242 240 239 239 239 240 243 244 245 246 243 241 243 248 254 261 264 262 258 251 246 246 240 240 249 254 255 260 267 270 269 269 272 276 278 280 285 291 295 297 301 304 306 307 309 311 313 315 316 317 318 318 315 311 308 306 304 301 296
224 235 244 242 239 240 241 240 240 242 244 245 246 246 243 240 240 244 251 257 261 261 259 254 246 246 247 245 246 251 256 261 264 264 264 269 274 278 283 287 292 296 299 301 302 302 303 304 306 309 311 314 316 317 318 318 316 312 307 304 302 300 296
223 226 238 241 236 234 239 243 244 242 243 245 246 246 246 243 238 240 248 256 259 259 259 257 251 250 253 250 248 253 257 259 261 261 265 272 278 284 289 293 296 298 301 302 302 301 301 302 305 308 311 314 316 318 318 317 315 312 308 303 300 299 297
236 228 230 238 240 236 236 240 239 238 241 244 244 246 249 248 241 236 243 253 256 257 259 260 258 256 256 254 253 255 256 259 261 263 268 277 285 290 293 295 297 299 301 303 303 302 301 301 303 307 311 314 316 317 317 317 315 312 307 303 300 299 299
246 240 232 234 239 239 237 235 231 232 237 241 243 244 247 249 246 237 235 244 251 254 258 261 262 261 260 258 257 256 256 260 264 268 274 281 287 291 292 294 297 300 302 303 302 301 300 300 303 306 309 312 314 314 315 316 315 313 308 304 301 299 299
235 240 237 233 233 238 243 242 235 233 236 238 241 242 243 247 248 240 233 238 247 252 256 260 262 260 258 258 258 257 260 264 268 273 278 283 288 290 292 294 298 300 301 300 299 299 299 301 303 305 307 308 310 312 313 313 315 314 309 305 303 301 299
229 230 234 234 234 238 245 249 248 243 238 236 237 241 242 245 246 240 233 235 242 248 253 258 260 258 257 259 261 263 267 270 271 275 280 284 289 292 294 296 298 299 298 297 297 297 298 300 302 304 305 306 309 311 311 310 312 313 309 305 305 304 301
230 231 233 237 239 240 245 251 253 249 244 238 237 239 242 244 245 242 235 233 238 244 249 254 258 259 260 263 267 270 272 273 274 278 281 285 289 292 294 297 297 297 297 295 295 295 295 297 299 300 302 305 308 309 308 308 310 311 309 306 305 305 302
231 234 236 239 243 247 250 252 251 249 246 240 236 237 239 242 245 245 240 235 235 241 247 252 255 258 261 265 269 272 273 275 276 277 279 283 288 291 293 295 295 294 294 293 292 292 292 294 297 297 299 303 305 306 306 307 308 310 310 308 307 304 302
234 237 239 240 242 244 247 249 247 244 242 237 233 234 237 241 245 247 245 240 236 238 245 250 253 257 260 264 267 269 272 274 275 276 277 281 286 288 290 291 291 290 289 288 287 288 290 295 299 299 299 301 302 303 304 305 307 309 310 310 308 304 303
239 237 239 240 238 236 241 245 243 238 236 232 231 232 235 240 245 247 247 245 240 237 243 249 253 256 258 261 263 266 269 272 274 277 280 282 284 286 287 287 287 286 285 285 285 288 293 299 302 300 299 300 300 301 303 305 307 309 310 310 308 305 305
242 237 237 240 239 235 237 242 240 235 231 229 229 231 234 239 244 246 247 248 244 241 244 248 251 254 256 258 261 265 268 271 274 278 281 283 284 285 286 286 287 287 287 288 290 292 296 302 302 299 299 300 300 301 302 305 308 309 309 308 306 305 305
237 235 233 235 236 230 228 235 240 237 233 229 228 230 233 237 242 245 247 246 246 246 247 248 250 252 255 258 262 266 269 272 275 277 280 283 284 285 286 287 288 288 289 291 292 292 296 300 300 299 299 300 301 301 302 305 308 308 306 305 304 304 304
230 228 228 229 229 225 221 226 236 238 234 228 225 226 230 234 239 243 244 244 246 248 249 250 251 253 257 261 264 267 269 271 273 275 279 282 283 285 286 287 287 287 290 293 294 292 295 298 298 299 300 301 301 302 303 305 307 305 304 304 303 303 304
226 224 226 226 224 222 221 223 230 234 228 221 219 221 226 231 236 239 241 242 245 248 251 254 255 256 259 261 263 265 266 269 272 275 279 281 283 285 286 286 288 290 292 294 296 295 295 297 297 297 299 300 301 303 303 305 305 304 303 303 303 304 304
225 221 223 223 218 216 219 221 224 225 219 215 215 218 223 227 232 235 238 241 244 247 251 254 255 255 256 258 261 263 265 269 272 275 278 280 280 281 281 282 288 291 289 289 292 294 294 295 296 296 298 300 301 303 304 304 304 304 303 303 304 304 304
231 224 223 224 221 216 216 217 217 216 214 212 214 217 221 224 228 233 237 241 244 247 249 251 251 253 255 258 261 263 265 269 271 273 275 276 276 276 277 279 286 289 286 285 289 292 292 294 295 296 298 300 302 304 305 305 304 303 303 303 304 303 303
236 230 225 225 225 220 217 216 214 212 212 212 213 216 220 224 228 233 237 241 243 244 246 248 250 253 256 259 261 264 266 268 270 272 273 274 274 276 278 280 283 285 285 285 287 290 291 293 295 296 298 301 304 304 304 303 302 302 303 303 303 302 302
238 231 224 222 223 222 219 217 214 212 212 214 215 217 222 226 230 233 236 238 240 242 245 248 251 254 257 259 262 265 267 268 270 272 273 273 274 277 280 281 282 283 285 285 287 289 291 293 295 297 300 303 304 304 303 302 302 302 303 303 302 302 302
240 230 221 217 217 220 219 215 214 216 218 218 218 220 224 228 230 232 235 238 240 243 246 249 252 255 258 261 264 266 268 269 271 272 273 275 276 279 281 282 281 282 284 285 287 290 292 293 295 298 301 303 303 302 302 302 302 303 303 302 302 302 302
234 224 216 213 214 217 218 214 214 219 221 222 222 223 225 228 230 233 236 238 241 244 247 249 252 255 259 262 265 267 268 269 270 272 273 274 276 279 282 282 281 283 286 288 290 291 292 293 296 300 302 302 302 302 302 302 302 302 302 302 303 302 302
224 214 211 211 212 215 218 218 219 220 221 223 224 225 226 229 231 233 236 239 241 245 247 249 253 256 259 262 264 265 266 268 269 270 271 274 278 281 283 285 286 286 288 290 291 292 293 294 298 301 301 301 301 301 301 301 301 302 302 302 302 301 300
219 211 210 212 212 214 216 219 221 222 222 224 225 226 228 230 232 234 237 240 243 246 248 250 253 255 258 261 262 263 265 266 267 269 272 277 282 283 285 287 288 287 288 290 291 291 293 296 299 300 299 299 299 300 300 300 301 301 301 300 299 299 299